Overview Statistics Trail Chart Weather Telemetry Raw packets
 

This is the latest recevied weather packets stored in our database for station/object OE6ACM-10. If no packets are shown the sender has not sent any weather packets the latest 10 day(s).

<< 60 61 62 63 64 65 66 >>
Time Temp. Humidity Pressure Rain* Wind** Luminosity Snow
1788272457 37.78° C 80% 930.9 hPa - - - -
1788272157 37.22° C 76% 931 hPa - - - -
1788271857 38.33° C 69% 931 hPa - - - -
1788271557 40.56° C 64% 931 hPa - - - -
1788271257 41.67° C 63% 931.1 hPa - - - -
1788270957 40° C 71% 931.1 hPa - - - -
1788270657 39.44° C 70% 931.2 hPa - - - -
1788270357 39.44° C 82% 931.1 hPa - - - -
1788270057 36.67° C 100% 931.2 hPa - - - -
1788269757 35.56° C 97% 931.2 hPa - - - -
1788269457 35.56° C 94% 931.2 hPa - - - -
1788269157 37.22° C 100% 931.3 hPa - - - -
1788268857 37.22° C 94% 931.3 hPa - - - -
1788268557 36.67° C 98% 931.3 hPa - - - -
1788268257 36.67° C 97% 931.4 hPa - - - -
1788267957 36.67° C 100% 931.4 hPa - - - -
1788267657 37.22° C 94% 931.5 hPa - - - -
1788267357 36.67° C 100% 931.5 hPa - - - -
1788267057 33.89° C 100% 931.6 hPa - - - -
1788266757 33.33° C 100% 931.6 hPa - - - -
1788266467 32.78° C 100% 931.6 hPa - - - -
1788266157 33.89° C 100% 931.7 hPa - - - -
1788265857 33.33° C 100% 931.7 hPa - - - -
1788265557 31.67° C 100% 931.7 hPa - - - -
1788265257 31.67° C 100% 931.8 hPa - - - -

* Rain since midnight (hover to see other rain measurements)
** Current wind speed in m/s (hover to see current wind gust speed)